This is the latest recevied weather packets stored in our database for station/object DB0NLS-15. If no packets are shown the sender has not sent any weather packets the latest 10 day(s).
| Time | Temp. | Humidity | Pressure | Rain* | Wind** | Luminosity | Snow |
|---|---|---|---|---|---|---|---|
| 1787907045 | 22.78° C | 64% | 1000.5 hPa | 0 mm | - | - | - |
| 1787906436 | 21.67° C | 66% | 1000.9 hPa | 0 mm | - | - | - |
| 1787905833 | 20.56° C | 68% | 1000.8 hPa | 0 mm | - | - | - |
| 1787905224 | 20° C | 70% | 1000.8 hPa | 0 mm | - | - | - |
| 1787904622 | 20° C | 70% | 1000.9 hPa | 0 mm | - | - | - |
| 1787904073 | 19.44° C | 69% | 1001 hPa | 0 mm | - | - | - |
| 1787903471 | 19.44° C | 70% | 1000.8 hPa | 0 mm | - | - | - |
| 1787902870 | 18.89° C | 69% | 1000.3 hPa | 0 mm | - | - | - |
| 1787902259 | 18.89° C | 70% | 1000.7 hPa | 0 mm | - | - | - |
| 1787901656 | 18.33° C | 72% | 1000.8 hPa | 0 mm | - | - | - |
| 1787901048 | 17.78° C | 72% | 1000.8 hPa | 0 mm | - | - | - |
| 1787900445 | 17.78° C | 73% | 1001.3 hPa | 0 mm | - | - | - |
| 1787899837 | 17.78° C | 72% | 1001 hPa | 0 mm | - | - | - |
| 1787899234 | 17.78° C | 74% | 1000.8 hPa | 0 mm | - | - | - |
| 1787898626 | 17.78° C | 72% | 1001 hPa | 0 mm | - | - | - |
| 1787898023 | 17.78° C | 70% | 1001 hPa | 0 mm | - | - | - |
| 1787897420 | 18.33° C | 69% | 1001.2 hPa | 0 mm | - | - | - |
| 1787896872 | 18.33° C | 69% | 1001.3 hPa | 0 mm | - | - | - |
| 1787896269 | 18.33° C | 69% | 1001.2 hPa | 0 mm | - | - | - |
| 1787895661 | 18.33° C | 68% | 1001.2 hPa | 0 mm | - | - | - |
| 1787895058 | 18.33° C | 68% | 1001.5 hPa | 0 mm | - | - | - |
| 1787894450 | 18.33° C | 67% | 1001.8 hPa | 0 mm | - | - | - |
| 1787893847 | 17.78° C | 68% | 1002 hPa | 0 mm | - | - | - |
| 1787893244 | 17.78° C | 68% | 1001.5 hPa | 0 mm | - | - | - |
| 1787892636 | 17.78° C | 68% | 1000.7 hPa | 0 mm | - | - | - |
* Rain latest hour (hover to see other rain measurements)
** Current wind speed in m/s (hover to see current wind gust speed)